[[{"header":{"parameterUnit":"m.s-1","parameterCategory":1,"la1":30.2991,"la2":30.254,"lo1":-89.0895,"lo2":-89.0444,"dy":0.0017,"dx":0.0017,"nx":28,"ny":28,"refTime":"2023-07-26T09:00:00:Z","depth":0,"parameterNumber":2,"parameterNumberName":"U-component_of_WINDS"},"data":[0,0,0,0,0,0,0,0,0,0,0,0,0,0,0,0,0,0,0,0,0,0,0,0,0,0,0,0,0,0,0,0,0,0,0,0,0,0,0,0,0,0,0,0,0,0,0,0,0,0,0,0,0,0,0,0,0,0,0.1313,0.1312,0,0.1183,0.1182,0.1181,0.1098,0.1098,0.1097,0.1097,0.0965,0.0962,0.0959,0,0,0,0,0,0,0,0,0,0,0,0,0,0.1488,0.1486,0.1313,0.1312,0.131,0.1184,0.1182,0.118,0.1098,0.1098,0.1097,0.1097,0.0966,0.0962,0.0959,0,0,0,0,0,0,0,0,0,0,0,0,0,0.1391,0.1485,0.1314,0.1254,0.1247,0.1184,0.1182,0.118,0.1098,0.1098,0.1097,0.1096,0.0967,0.0963,0.0958,0.0944,0,0,0.0944,0.0942,0,0,0,0,0,0,0,0,0.1397,0.1385,0.1264,0.1258,0.125,0.1156,0.1195,0.1101,0.1099,0.1155,0.1097,0.1096,0.1029,0.1019,0.0997,0.0938,0.0932,0.0944,0.0941,0.0939,0.0938,0,0,0,0,0,0,0,0.1403,0.139,0.1262,0.1263,0.1254,0.1233,0.1218,0.1177,0.1098,0.115,0.1144,0.1129,0.1025,0.1001,0.0993,0.0931,0.0944,0.094,0.0937,0.0935,0.085,0.0851,0,0,0,0,0,0,0.142,0.1396,0.1266,0.1258,0.1323,0.1231,0.1214,0.1187,0.1098,0.1084,0.113,0.1126,0.101,0.0998,0.0988,0.0963,0.0939,0.0935,0.0932,0.085,0.085,0.0851,0,0,0,0,0,0,0.1424,0.1409,0.1271,0.1325,0.1306,0.1228,0.1199,0.1185,0.1161,0.1083,0.1068,0.112,0.1009,0.0995,0.0955,0.0958,0.0933,0.0928,0.0849,0.085,0.085,0.0916,0,0,0,0,0,0,0.1429,0.1411,0.1406,0.1326,0.1303,0.1241,0.1199,0.1183,0.1153,0.1147,0.107,0.1057,0.1007,0.0962,0.095,0.0951,0.0925,0.0848,0.0849,0.085,0.0913,0.0919,0.0924,0,0,0,0,0,0.1436,0.143,0.1406,0.139,0.1295,0.1241,0.1229,0.1171,0.1154,0.1147,0.1096,0.1059,0.096,0.0959,0.0945,0.0944,0.0848,0.0849,0.085,0.0911,0.0918,0.0924,0,0,0,0,0,0,0.1514,0.1419,0.1391,0.1359,0.1309,0.1228,0.1218,0.1181,0.1135,0.1131,0.1062,0.1045,0.1012,0.0974,0.0975,0.0924,0.0899,0.0898,0.095,0.0956,0.0961,0.0971,0.0921,0,0,0,0,0,0.1527,0.1491,0.141,0.139,0.1366,0.1296,0.1271,0.1231,0.1176,0.1155,0.1101,0.1049,0.1006,0.0979,0.0935,0.0907,0.0888,0.09,0.0905,0.091,0.0909,0.0888,0.0892,0.0854,0.0854,0.0854,0,0,0.1554,0.1498,0.148,0.1404,0.1361,0.1324,0.1279,0.1244,0.1216,0.1149,0.1108,0.1067,0.1004,0.0969,0.0952,0.0937,0.0915,0.0911,0.0916,0.0912,0.089,0.0894,0.0897,0.0855,0.0855,0.0855,0,0,0.1585,0.154,0.1517,0.1473,0.1407,0.136,0.1355,0.1278,0.1248,0.1205,0.1153,0.1119,0.1047,0.1003,0.0972,0.0983,0.0946,0.0971,0.0998,0.0979,0.0982,0.0984,0.0986,0.0988,0.097,0.0971,0.0971,0,0.1628,0.1572,0.151,0.1476,0.1443,0.138,0.1355,0.1316,0.1239,0.1218,0.1202,0.1108,0.1061,0.1014,0.1017,0.0994,0.0984,0.0979,0.0987,0.0988,0.0989,0.099,0.0991,0.0974,0.0973,0.0973,0.0973,0,0.1626,0.1587,0.1577,0.1502,0.1468,0.144,0.1372,0.1345,0.1307,0.1262,0.1217,0.1159,0.1101,0.1087,0.105,0.1033,0.1026,0.1,0.0973,0.0997,0.0997,0.0997,0.0979,0.0977,0.0976,0.0976,0,0,0.1704,0.1594,0.1591,0.1555,0.1476,0.1444,0.1412,0.1354,0.1331,0.1279,0.1249,0.1187,0.1161,0.1126,0.1083,0.1067,0.1076,0.1042,0.1039,0.1049,0.1051,0.1071,0.1072,0.1051,0.1051,0.1051,0.1056,0,0.1722,0.1659,0.1601,0.156,0.1522,0.146,0.1431,0.1379,0.1335,0.1295,0.1247,0.1203,0.1173,0.1151,0.1132,0.1079,0.1076,0.1078,0.1021,0.102,0.1038,0.1073,0.1094,0.1101,0.1056,0.1056,0.1055,0,0.1735,0.1684,0.1639,0.156,0.1542,0.1517,0.1458,0.1422,0.136,0.1329,0.1288,0.1243,0.1203,0.1181,0.1125,0.1128,0.1101,0.1071,0.107,0.1062,0.1039,0.1064,0.1102,0.1103,0.1055,0.1055,0.1055,0,0.1794,0.1714,0.1676,0.1647,0.1556,0.1539,0.15,0.1438,0.1406,0.1354,0.1332,0.1277,0.1246,0.1204,0.1144,0.1134,0.1094,0.1067,0.1065,0.1067,0.1059,0.1061,0.1093,0.1045,0.1045,0.1045,0.1045,0,0.1819,0.1793,0.17,0.1677,0.1645,0.1578,0.1548,0.1504,0.1448,0.1414,0.1357,0.1326,0.125,0.1209,0.1163,0.1122,0.1109,0.1082,0.1069,0.1086,0.1089,0.1067,0.1064,0.1045,0.1045,0.1045,0.1045,0,0.188,0.1817,0.177,0.1686,0.1664,0.1645,0.1572,0.1546,0.1498,0.1455,0.1441,0.1365,0.1314,0.125,0.118,0.1148,0.1111,0.1094,0.1132,0.1124,0.1126,0.1126,0.1144,0.1142,0.1097,0.1097,0.1098,0,0.1899,0.1877,0.1791,0.1763,0.1725,0.1682,0.1648,0.1581,0.1548,0.1475,0.1457,0.1401,0.1353,0.1274,0.1212,0.1157,0.1136,0.1146,0.1128,0.1144,0.1134,0.1136,0.1132,0.1151,0.1152,0.1153,0.1153,0,0.1941,0.191,0.1863,0.1805,0.1766,0.1717,0.1666,0.1646,0.1568,0.1533,0.148,0.1442,0.1368,0.1313,0.1249,0.1208,0.1167,0.1159,0.1156,0.1172,0.1194,0.118,0.1143,0.1159,0.1159,0.1158,0.1158,0.1158,0.198,0.1956,0.189,0.184,0.1793,0.1746,0.1716,0.1664,0.1618,0.1552,0.1515,0.1461,0.1398,0.1308,0.1268,0.1225,0.121,0.1205,0.1204,0.1203,0.1207,0.1202,0.1213,0.1213,0.1213,0.1212,0.1212,0,0.2016,0.197,0.1924,0.1853,0.1812,0.1777,0.1717,0.1685,0.1639,0.1583,0.1536,0.1473,0.1418,0.1352,0.1292,0.127,0.125,0.1257,0.1257,0.1248,0.1225,0.1233,0.1274,0.1274,0.1274,0.1274,0.1274,0.1274,0.203,0.1988,0.1949,0.1882,0.1836,0.1783,0.1752,0.1707,0.1661,0.1593,0.1547,0.1504,0.1443,0.1378,0.1325,0.1307,0.1287,0.13,0.1276,0.1255,0.125,0.1245,0.1252,0.1296,0.1296,0.1301,0.1302,0.1302]},{"header":{"parameterUnit":"m.s-1","parameterCategory":1,"la1":30.2991,"la2":30.254,"lo1":-89.0895,"lo2":-89.0444,"dy":0.0017,"dx":0.0017,"nx":28,"ny":28,"refTime":"2023-07-26T09:00:00:Z","depth":0,"parameterNumber":3,"parameterNumberName":"V-component_of_WINDS"},"data":[0,0,0,0,0,0,0,0,0,0,0,0,0,0,0,0,0,0,0,0,0,0,0,0,0,0,0,0,0,0,0,0,0,0,0,0,0,0,0,0,0,0,0,0,0,0,0,0,0,0,0,0,0,0,0,0,0,0,2.5679,2.5678,0,2.5493,2.5491,2.5489,2.5333,2.5331,2.533,2.5328,2.5126,2.5122,2.5118,0,0,0,0,0,0,0,0,0,0,0,0,0,2.5891,2.5888,2.568,2.5677,2.5675,2.5493,2.5491,2.5488,2.5333,2.5331,2.5329,2.5327,2.5127,2.5123,2.5118,0,0,0,0,0,0,0,0,0,0,0,0,0,2.5761,2.5887,2.568,2.5576,2.5565,2.5494,2.5491,2.5487,2.5334,2.5331,2.5329,2.5326,2.5129,2.5123,2.5117,2.5131,0,0,2.51,2.5097,0,0,0,0,0,0,0,0,2.5769,2.5754,2.5594,2.5583,2.5571,2.5434,2.5491,2.5367,2.5334,2.5421,2.5328,2.5325,2.523,2.5215,2.5185,2.5121,2.5113,2.5099,2.5096,2.5093,2.5092,0,0,0,0,0,0,0,2.5778,2.5761,2.5605,2.5591,2.5577,2.5535,2.5514,2.5467,2.5341,2.5413,2.5402,2.5382,2.5223,2.5191,2.518,2.511,2.5099,2.5094,2.5091,2.5088,2.5045,2.5048,0,0,0,0,0,0,2.5805,2.5769,2.5611,2.56,2.5666,2.5534,2.551,2.548,2.5341,2.5318,2.5385,2.5376,2.5203,2.5186,2.5172,2.5177,2.5093,2.5088,2.5085,2.5043,2.5046,2.5048,0,0,0,0,0,0,2.581,2.5792,2.5619,2.5681,2.5656,2.5533,2.55,2.5478,2.5446,2.532,2.5295,2.5377,2.52,2.518,2.5143,2.5168,2.5085,2.508,2.504,2.5044,2.5047,2.519,0,0,0,0,0,0,2.5817,2.5795,2.5801,2.5683,2.5654,2.5597,2.5502,2.5476,2.5438,2.5425,2.5306,2.5283,2.5196,2.5152,2.5137,2.5159,2.5075,2.5037,2.5042,2.5046,2.5182,2.5198,2.5211,0,0,0,0,0,2.5825,2.5847,2.5803,2.5784,2.566,2.5598,2.5581,2.5484,2.5441,2.5444,2.5363,2.5287,2.5169,2.515,2.5131,2.5152,2.5035,2.5041,2.5046,2.5176,2.5195,2.5211,0,0,0,0,0,0,2.5967,2.5829,2.5779,2.5764,2.5695,2.5572,2.5574,2.5507,2.5446,2.5435,2.5314,2.5288,2.5264,2.5203,2.5185,2.5156,2.5092,2.5093,2.5197,2.5214,2.5228,2.5242,2.5071,0,0,0,0,0,2.5998,2.5964,2.5843,2.5841,2.581,2.5699,2.5668,2.56,2.5521,2.549,2.5406,2.533,2.5275,2.5241,2.5184,2.5173,2.5143,2.5178,2.5193,2.5205,2.5207,2.5195,2.5209,2.5066,2.5066,2.5065,0,0,2.6059,2.5979,2.5964,2.5868,2.5806,2.577,2.5674,2.564,2.5611,2.5483,2.5444,2.538,2.5286,2.5263,2.5248,2.5211,2.5241,2.5212,2.5223,2.5218,2.5202,2.5216,2.5228,2.5069,2.5068,2.5068,0,0,2.6152,2.6089,2.6081,2.6022,2.5931,2.5857,2.5855,2.5743,2.5697,2.5656,2.556,2.5521,2.543,2.5367,2.5324,2.5394,2.5321,2.5378,2.5453,2.5443,2.5454,2.5463,2.5486,2.5497,2.5381,2.5382,2.5382,0,2.6238,2.6183,2.6084,2.6056,2.6015,2.5902,2.5891,2.5837,2.5731,2.5704,2.5666,2.5549,2.5478,2.5438,2.5456,2.5424,2.5416,2.539,2.5461,2.5469,2.5476,2.5497,2.5507,2.5389,2.5388,2.5387,2.5387,0,2.6293,2.6256,2.6259,2.6164,2.6123,2.6104,2.5998,2.5969,2.5904,2.5834,2.5792,2.5704,2.5626,2.5612,2.5547,2.5561,2.5542,2.5485,2.5416,2.55,2.5517,2.5524,2.54,2.5397,2.5395,2.5393,0,0,2.6468,2.632,2.6322,2.6277,2.6169,2.6137,2.6111,2.6039,2.6016,2.5946,2.5919,2.5846,2.5792,2.5743,2.5669,2.5661,2.572,2.5603,2.5599,2.5627,2.5729,2.5772,2.5783,2.5672,2.5673,2.5674,2.5736,0,2.6542,2.6493,2.6403,2.6382,2.6345,2.6238,2.6215,2.6144,2.6078,2.6034,2.5958,2.5908,2.5842,2.5811,2.5798,2.5716,2.5739,2.5711,2.5642,2.5641,2.5668,2.5792,2.5837,2.59,2.5742,2.5743,2.5744,0,2.6621,2.6562,2.6538,2.6433,2.6414,2.6396,2.6322,2.6283,2.62,2.6151,2.6098,2.6019,2.5982,2.5922,2.5868,2.5851,2.5818,2.5773,2.5773,2.5761,2.5697,2.5782,2.5917,2.5927,2.5754,2.5753,2.5753,0,2.675,2.6664,2.6638,2.6603,2.648,2.6469,2.6417,2.6332,2.6294,2.6229,2.6203,2.6133,2.6094,2.604,2.5943,2.5909,2.5899,2.5831,2.5855,2.5858,2.5856,2.5857,2.5987,2.5838,2.5838,2.5838,2.5838,0,2.684,2.6829,2.6695,2.6679,2.6663,2.6558,2.6544,2.6481,2.6406,2.6373,2.6275,2.6246,2.6121,2.6076,2.5999,2.5965,2.5948,2.5906,2.5885,2.5914,2.5919,2.5889,2.5881,2.584,2.584,2.584,2.5839,0,2.698,2.689,2.6855,2.6743,2.6714,2.6707,2.6608,2.6587,2.6516,2.6476,2.646,2.6346,2.6288,2.6187,2.6099,2.6047,2.6028,2.5993,2.6057,2.6044,2.6073,2.6072,2.6186,2.6195,2.6044,2.6046,2.6047,0,2.7043,2.7033,2.6921,2.6894,2.6847,2.6804,2.6766,2.6663,2.6627,2.6532,2.6521,2.6457,2.6399,2.6311,2.6218,2.615,2.6112,2.6157,2.6101,2.613,2.611,2.6112,2.6109,2.6169,2.6172,2.6173,2.6175,0,2.7164,2.7121,2.7072,2.7008,2.6967,2.6911,2.6849,2.6831,2.6713,2.6677,2.6619,2.6575,2.6487,2.6423,2.6342,2.6282,2.6208,2.6194,2.6195,2.6223,2.626,2.6239,2.6091,2.6191,2.6189,2.6188,2.6187,2.6187,2.7266,2.7252,2.7171,2.712,2.7064,2.7008,2.6983,2.691,2.6861,2.6784,2.6725,2.6671,2.6586,2.647,2.6416,2.6369,2.6335,2.6338,2.6338,2.634,2.6351,2.627,2.6354,2.6354,2.6353,2.6352,2.6352,0,2.738,2.7324,2.7278,2.7197,2.7156,2.7095,2.7023,2.6992,2.6947,2.6877,2.6823,2.6756,2.6693,2.6597,2.6526,2.6507,2.6471,2.6492,2.6491,2.6478,2.6386,2.6391,2.6522,2.6522,2.6522,2.6522,2.6522,2.6522,2.7435,2.7407,2.7355,2.7297,2.7239,2.7189,2.7153,2.71,2.7044,2.6974,2.6924,2.6863,2.678,2.6703,2.6642,2.6615,2.6592,2.6624,2.6586,2.6501,2.6485,2.647,2.6474,2.662,2.662,2.6681,2.6682,2.6682]}]]